Data supplied by UK-AIR on 21/3/2018
All Data GMT hour ending 
Status: R =Ratified P=Provisional,P*=As supplied
,,Honiton,,,,,,,,,,,,,,,,,,,,,,,
Date,time,"Nitric oxide",status,unit,"Nitrogen dioxide",status,unit,"Nitrogen oxides as nitrogen dioxide",status,unit
 
01-01-2017,01:00,0.71845,R,ugm-3,3.74786,R,ugm-3,4.84946,R,ugm-3
01-01-2017,02:00,0.94296,R,ugm-3,1.84126,R,ugm-3,3.28711,R,ugm-3
01-01-2017,03:00,0.71845,R,ugm-3,2.81568,R,ugm-3,3.91728,R,ugm-3
01-01-2017,04:00,0.53883,R,ugm-3,1.34210,R,ugm-3,2.16830,R,ugm-3
01-01-2017,05:00,0.40413,R,ugm-3,-0.19986,R,ugm-3,0.41979,R,ugm-3
01-01-2017,06:00,0.49393,R,ugm-3,-0.68754,R,ugm-3,0.06981,R,ugm-3
01-01-2017,07:00,0.67354,R,ugm-3,0.99641,R,ugm-3,2.02916,R,ugm-3
01-01-2017,08:00,0.76335,R,ugm-3,1.97705,R,ugm-3,3.14750,R,ugm-3
01-01-2017,09:00,0.76335,R,ugm-3,0.92804,R,ugm-3,2.09849,R,ugm-3
01-01-2017,10:00,0.76335,R,ugm-3,1.13794,R,ugm-3,2.30839,R,ugm-3
01-01-2017,11:00,0.80825,R,ugm-3,2.46760,R,ugm-3,3.70690,R,ugm-3
01-01-2017,12:00,0.98786,R,ugm-3,2.82189,R,ugm-3,4.33659,R,ugm-3
01-01-2017,13:00,1.12257,R,ugm-3,9.05138,R,ugm-3,10.77263,R,ugm-3
01-01-2017,14:00,1.16747,R,ugm-3,4.29548,R,ugm-3,6.08558,R,ugm-3
01-01-2017,15:00,1.16747,R,ugm-3,6.25388,R,ugm-3,8.04398,R,ugm-3
01-01-2017,16:00,0.98786,R,ugm-3,6.04015,R,ugm-3,7.55485,R,ugm-3
01-01-2017,17:00,1.07767,R,ugm-3,6.32225,R,ugm-3,7.97465,R,ugm-3
01-01-2017,18:00,1.16747,R,ugm-3,6.74395,R,ugm-3,8.53405,R,ugm-3
01-01-2017,19:00,0.98786,R,ugm-3,6.24957,R,ugm-3,7.76427,R,ugm-3
01-01-2017,20:00,0.98786,R,ugm-3,5.62036,R,ugm-3,7.13506,R,ugm-3
01-01-2017,21:00,0.94296,R,ugm-3,7.57733,R,ugm-3,9.02318,R,ugm-3
01-01-2017,22:00,0.80825,R,ugm-3,6.73535,R,ugm-3,7.97465,R,ugm-3
01-01-2017,23:00,0.58374,R,ugm-3,5.33014,R,ugm-3,6.22519,R,ugm-3
01-01-2017,24:00,0.53883,R,ugm-3,4.27970,R,ugm-3,5.10590,R,ugm-3
02-01-2017,01:00,0.90097,R,ugm-3,4.13993,R,ugm-3,5.52139,R,ugm-3
02-01-2017,02:00,0.94577,R,ugm-3,3.67296,R,ugm-3,5.12311,R,ugm-3
02-01-2017,03:00,0.63051,R,ugm-3,4.29691,R,ugm-3,5.26368,R,ugm-3
02-01-2017,04:00,0.58530,R,ugm-3,4.85823,R,ugm-3,5.75567,R,ugm-3
02-01-2017,05:00,0.67573,R,ugm-3,4.93043,R,ugm-3,5.96652,R,ugm-3
02-01-2017,06:00,0.58530,R,ugm-3,4.57709,R,ugm-3,5.47453,R,ugm-3
02-01-2017,07:00,1.21581,R,ugm-3,5.85655,R,ugm-3,7.72076,R,ugm-3
02-01-2017,08:00,2.02624,R,ugm-3,9.38655,R,ugm-3,12.49341,R,ugm-3
02-01-2017,09:00,2.29659,R,ugm-3,8.76116,R,ugm-3,12.28255,R,ugm-3
02-01-2017,10:00,2.11636,R,ugm-3,9.38894,R,ugm-3,12.63398,R,ugm-3
02-01-2017,11:00,3.60251,R,ugm-3,9.70737,R,ugm-3,15.23115,R,ugm-3
02-01-2017,12:00,3.19683,R,ugm-3,7.94261,R,ugm-3,12.84435,R,ugm-3
02-01-2017,13:00,3.51177,R,ugm-3,8.65311,R,ugm-3,14.03775,R,ugm-3
02-01-2017,14:00,3.33185,R,ugm-3,8.92898,R,ugm-3,14.03775,R,ugm-3
02-01-2017,15:00,2.47651,R,ugm-3,9.04708,R,ugm-3,12.84435,R,ugm-3
02-01-2017,16:00,2.34149,R,ugm-3,15.50081,R,ugm-3,19.09105,R,ugm-3
02-01-2017,17:00,2.56663,R,ugm-3,24.84194,R,ugm-3,28.77739,R,ugm-3
02-01-2017,18:00,9.27555,R,ugm-3,39.82303,R,ugm-3,54.04534,R,ugm-3
02-01-2017,19:00,6.70923,R,ugm-3,30.56271,R,ugm-3,40.85004,R,ugm-3
02-01-2017,20:00,6.30385,R,ugm-3,29.21870,R,ugm-3,38.88447,R,ugm-3
02-01-2017,21:00,11.93230,R,ugm-3,37.29375,R,ugm-3,55.58968,R,ugm-3
02-01-2017,22:00,6.66401,R,ugm-3,27.05231,R,ugm-3,37.27032,R,ugm-3
02-01-2017,23:00,2.74687,R,ugm-3,13.89766,R,ugm-3,18.10946,R,ugm-3
02-01-2017,24:00,1.62087,R,ugm-3,8.74443,R,ugm-3,11.22972,R,ugm-3
03-01-2017,01:00,2.10669,R,ugm-3,9.82260,R,ugm-3,13.05281,R,ugm-3
03-01-2017,02:00,1.71597,R,ugm-3,4.97489,R,ugm-3,7.60601,R,ugm-3
03-01-2017,03:00,0.99347,R,ugm-3,4.60434,R,ugm-3,6.12765,R,ugm-3
03-01-2017,04:00,1.08359,R,ugm-3,7.91632,R,ugm-3,9.57780,R,ugm-3
03-01-2017,05:00,1.62523,R,ugm-3,12.50918,R,ugm-3,15.00117,R,ugm-3
03-01-2017,06:00,2.48369,R,ugm-3,13.37603,R,ugm-3,17.18429,R,ugm-3
03-01-2017,07:00,11.01740,R,ugm-3,18.60241,R,ugm-3,35.49552,R,ugm-3
03-01-2017,08:00,41.72063,R,ugm-3,34.27630,R,ugm-3,98.24704,R,ugm-3
03-01-2017,09:00,59.73600,R,ugm-3,35.80965,R,ugm-3,127.40358,R,ugm-3
03-01-2017,10:00,66.28371,R,ugm-3,37.32100,R,ugm-3,138.95460,R,ugm-3
03-01-2017,11:00,111.57130,R,ugm-3,47.11157,R,ugm-3,218.18517,R,ugm-3
03-01-2017,12:00,6.99891,R,ugm-3,16.73581,R,ugm-3,27.46733,R,ugm-3
03-01-2017,13:00,5.95991,R,ugm-3,15.37076,R,ugm-3,24.50917,R,ugm-3
03-01-2017,14:00,6.68241,R,ugm-3,19.05185,R,ugm-3,29.29807,R,ugm-3
03-01-2017,15:00,5.14730,R,ugm-3,22.25050,R,ugm-3,30.14291,R,ugm-3
03-01-2017,16:00,4.06370,R,ugm-3,26.37768,R,ugm-3,32.60860,R,ugm-3
03-01-2017,17:00,,,,,,,,,
03-01-2017,18:00,,,,,,,,,
03-01-2017,19:00,2.43816,R,ugm-3,18.79844,R,ugm-3,22.53690,R,ugm-3
03-01-2017,20:00,1.26445,R,ugm-3,11.86467,R,ugm-3,13.80347,R,ugm-3
03-01-2017,21:00,1.26414,R,ugm-3,6.30217,R,ugm-3,8.24048,R,ugm-3
03-01-2017,22:00,0.90305,R,ugm-3,2.20703,R,ugm-3,3.59168,R,ugm-3
03-01-2017,23:00,0.72219,R,ugm-3,1.07578,R,ugm-3,2.18312,R,ugm-3
03-01-2017,24:00,0.67728,R,ugm-3,0.86302,R,ugm-3,1.90150,R,ugm-3
04-01-2017,01:00,0.48312,R,ugm-3,-0.26903,R,ugm-3,0.47175,R,ugm-3
04-01-2017,02:00,0.76990,R,ugm-3,-0.40258,R,ugm-3,0.77791,R,ugm-3
04-01-2017,03:00,0.58873,R,ugm-3,0.37103,R,ugm-3,1.27373,R,ugm-3
04-01-2017,04:00,0.58904,R,ugm-3,0.37007,R,ugm-3,1.27325,R,ugm-3
04-01-2017,05:00,0.58873,R,ugm-3,0.37055,R,ugm-3,1.27325,R,ugm-3
04-01-2017,06:00,0.58873,R,ugm-3,2.98637,R,ugm-3,3.88907,R,ugm-3
04-01-2017,07:00,1.90151,R,ugm-3,12.35858,R,ugm-3,15.27418,R,ugm-3
04-01-2017,08:00,2.94269,R,ugm-3,24.48096,R,ugm-3,28.99302,R,ugm-3
04-01-2017,09:00,3.80333,R,ugm-3,26.69707,R,ugm-3,32.52876,R,ugm-3
04-01-2017,10:00,4.34653,R,ugm-3,28.62200,R,ugm-3,35.28658,R,ugm-3
04-01-2017,11:00,3.25951,R,ugm-3,22.93470,R,ugm-3,27.93254,R,ugm-3
04-01-2017,12:00,3.12418,R,ugm-3,19.25218,R,ugm-3,24.04252,R,ugm-3
04-01-2017,13:00,4.25610,R,ugm-3,20.41594,R,ugm-3,26.94187,R,ugm-3
04-01-2017,14:00,2.94300,R,ugm-3,16.41881,R,ugm-3,20.93136,R,ugm-3
04-01-2017,15:00,3.84854,R,ugm-3,23.09200,R,ugm-3,28.99302,R,ugm-3
04-01-2017,16:00,8.05943,R,ugm-3,32.82902,R,ugm-3,45.18664,R,ugm-3
04-01-2017,17:00,4.84451,R,ugm-3,32.80798,R,ugm-3,40.23613,R,ugm-3
04-01-2017,18:00,2.30938,R,ugm-3,25.24022,R,ugm-3,28.78121,R,ugm-3
04-01-2017,19:00,2.85226,R,ugm-3,31.40803,R,ugm-3,35.78144,R,ugm-3
04-01-2017,20:00,6.11239,R,ugm-3,36.52110,R,ugm-3,45.89331,R,ugm-3
04-01-2017,21:00,3.53142,R,ugm-3,26.26580,R,ugm-3,31.68056,R,ugm-3
04-01-2017,22:00,1.44874,R,ugm-3,19.34637,R,ugm-3,21.56774,R,ugm-3
04-01-2017,23:00,1.26757,R,ugm-3,15.16947,R,ugm-3,17.11305,R,ugm-3
04-01-2017,24:00,0.86064,R,ugm-3,11.76283,R,ugm-3,13.08246,R,ugm-3
05-01-2017,01:00,0.54507,R,ugm-3,8.34105,R,ugm-3,9.17681,R,ugm-3
05-01-2017,02:00,0.95325,R,ugm-3,8.47190,R,ugm-3,9.93353,R,ugm-3
05-01-2017,03:00,0.58997,R,ugm-3,7.96413,R,ugm-3,8.86874,R,ugm-3
05-01-2017,04:00,0.81729,R,ugm-3,6.76451,R,ugm-3,8.01768,R,ugm-3
05-01-2017,05:00,0.45402,R,ugm-3,7.46401,R,ugm-3,8.16016,R,ugm-3
05-01-2017,06:00,0.90803,R,ugm-3,14.14676,R,ugm-3,15.53906,R,ugm-3
05-01-2017,07:00,5.44821,R,ugm-3,33.36691,R,ugm-3,41.72071,R,ugm-3
05-01-2017,08:00,10.94194,R,ugm-3,46.01714,R,ugm-3,62.79455,R,ugm-3
05-01-2017,09:00,19.20530,R,ugm-3,38.17111,R,ugm-3,67.61883,R,ugm-3
05-01-2017,10:00,19.56827,R,ugm-3,41.44627,R,ugm-3,71.45052,R,ugm-3
05-01-2017,11:00,9.08003,R,ugm-3,28.15248,R,ugm-3,42.07500,R,ugm-3
05-01-2017,12:00,2.63305,R,ugm-3,7.88285,R,ugm-3,11.92013,R,ugm-3
05-01-2017,13:00,1.49801,R,ugm-3,2.59909,R,ugm-3,4.89600,R,ugm-3
05-01-2017,14:00,1.31653,R,ugm-3,2.66459,R,ugm-3,4.68323,R,ugm-3
05-01-2017,15:00,1.36205,R,ugm-3,5.00645,R,ugm-3,7.09490,R,ugm-3
05-01-2017,16:00,1.13536,R,ugm-3,6.20606,R,ugm-3,7.94692,R,ugm-3
05-01-2017,17:00,1.77085,R,ugm-3,18.50009,R,ugm-3,21.21536,R,ugm-3
05-01-2017,18:00,5.49373,R,ugm-3,33.15510,R,ugm-3,41.57871,R,ugm-3
05-01-2017,19:00,12.21325,R,ugm-3,48.53782,R,ugm-3,67.26454,R,ugm-3
05-01-2017,20:00,11.89550,R,ugm-3,48.52778,R,ugm-3,66.76729,R,ugm-3
05-01-2017,21:00,2.22487,R,ugm-3,32.06545,R,ugm-3,35.47688,R,ugm-3
05-01-2017,22:00,1.58875,R,ugm-3,14.80610,R,ugm-3,17.24214,R,ugm-3
05-01-2017,23:00,1.18057,R,ugm-3,11.10350,R,ugm-3,12.91368,R,ugm-3
05-01-2017,24:00,0.68071,R,ugm-3,10.38009,R,ugm-3,11.42384,R,ugm-3
06-01-2017,01:00,1.09264,R,ugm-3,10.38041,R,ugm-3,12.05576,R,ugm-3
06-01-2017,02:00,1.32027,R,ugm-3,7.44488,R,ugm-3,9.46927,R,ugm-3
06-01-2017,03:00,0.86500,R,ugm-3,5.15228,R,ugm-3,6.47859,R,ugm-3
06-01-2017,04:00,0.63737,R,ugm-3,0.51685,R,ugm-3,1.49414,R,ugm-3
06-01-2017,05:00,0.63737,R,ugm-3,0.58857,R,ugm-3,1.56586,R,ugm-3
06-01-2017,06:00,0.59184,R,ugm-3,1.93975,R,ugm-3,2.84723,R,ugm-3
06-01-2017,07:00,1.13816,R,ugm-3,6.93998,R,ugm-3,8.68514,R,ugm-3
06-01-2017,08:00,2.32185,R,ugm-3,10.74921,R,ugm-3,14.30933,R,ugm-3
06-01-2017,09:00,1.36579,R,ugm-3,9.36790,R,ugm-3,11.46209,R,ugm-3
06-01-2017,10:00,1.45685,R,ugm-3,7.73272,R,ugm-3,9.96652,R,ugm-3
06-01-2017,11:00,1.50237,R,ugm-3,7.87711,R,ugm-3,10.18072,R,ugm-3
06-01-2017,12:00,1.41132,R,ugm-3,4.52832,R,ugm-3,6.69232,R,ugm-3
06-01-2017,13:00,0.81948,R,ugm-3,3.72698,R,ugm-3,4.98350,R,ugm-3
06-01-2017,14:00,1.13816,R,ugm-3,5.44537,R,ugm-3,7.19052,R,ugm-3
06-01-2017,15:00,1.18369,R,ugm-3,10.50154,R,ugm-3,12.31650,R,ugm-3
06-01-2017,16:00,1.04711,R,ugm-3,7.57828,R,ugm-3,9.18383,R,ugm-3
06-01-2017,17:00,1.27474,R,ugm-3,9.86324,R,ugm-3,11.81782,R,ugm-3
06-01-2017,18:00,1.00158,R,ugm-3,7.50608,R,ugm-3,9.04182,R,ugm-3
06-01-2017,19:00,1.09264,R,ugm-3,6.93903,R,ugm-3,8.61438,R,ugm-3
06-01-2017,20:00,0.81948,R,ugm-3,6.64546,R,ugm-3,7.90197,R,ugm-3
06-01-2017,21:00,0.91053,R,ugm-3,5.93640,R,ugm-3,7.33253,R,ugm-3
06-01-2017,22:00,0.63737,R,ugm-3,5.14510,R,ugm-3,6.12239,R,ugm-3
06-01-2017,23:00,0.45527,R,ugm-3,3.21778,R,ugm-3,3.91584,R,ugm-3
06-01-2017,24:00,0.40974,R,ugm-3,1.72077,R,ugm-3,2.34903,R,ugm-3
07-01-2017,01:00,0.79162,R,ugm-3,3.26527,R,ugm-3,4.47908,R,ugm-3
07-01-2017,02:00,1.36922,R,ugm-3,6.54983,R,ugm-3,8.64928,R,ugm-3
07-01-2017,03:00,0.77644,R,ugm-3,3.67009,R,ugm-3,4.86062,R,ugm-3
07-01-2017,04:00,0.73061,R,ugm-3,2.16830,R,ugm-3,3.28854,R,ugm-3
07-01-2017,05:00,0.63955,R,ugm-3,0.80660,R,ugm-3,1.78723,R,ugm-3
07-01-2017,06:00,0.54788,R,ugm-3,0.51829,R,ugm-3,1.35835,R,ugm-3
07-01-2017,07:00,0.73061,R,ugm-3,2.45326,R,ugm-3,3.57351,R,ugm-3
07-01-2017,08:00,1.32370,R,ugm-3,4.61773,R,ugm-3,6.64737,R,ugm-3
07-01-2017,09:00,1.23264,R,ugm-3,5.83026,R,ugm-3,7.72028,R,ugm-3
07-01-2017,10:00,1.36922,R,ugm-3,13.98324,R,ugm-3,16.08269,R,ugm-3
07-01-2017,11:00,1.82605,R,ugm-3,13.78339,R,ugm-3,16.58329,R,ugm-3
07-01-2017,12:00,1.96294,R,ugm-3,11.85702,R,ugm-3,14.86682,R,ugm-3
07-01-2017,13:00,2.28225,R,ugm-3,12.01146,R,ugm-3,15.51085,R,ugm-3
07-01-2017,14:00,1.78021,R,ugm-3,8.92181,R,ugm-3,11.65143,R,ugm-3
07-01-2017,15:00,1.87189,R,ugm-3,9.49652,R,ugm-3,12.36670,R,ugm-3
07-01-2017,16:00,1.64332,R,ugm-3,11.27562,R,ugm-3,13.79534,R,ugm-3
07-01-2017,17:00,1.32370,R,ugm-3,12.48050,R,ugm-3,14.51014,R,ugm-3
07-01-2017,18:00,1.27817,R,ugm-3,13.69493,R,ugm-3,15.65477,R,ugm-3
07-01-2017,19:00,1.00408,R,ugm-3,10.39778,R,ugm-3,11.93735,R,ugm-3
07-01-2017,20:00,0.77644,R,ugm-3,8.81663,R,ugm-3,10.00716,R,ugm-3
07-01-2017,21:00,0.68508,R,ugm-3,4.02438,R,ugm-3,5.07482,R,ugm-3
07-01-2017,22:00,0.82197,R,ugm-3,5.10159,R,ugm-3,6.36193,R,ugm-3
07-01-2017,23:00,1.09544,R,ugm-3,10.90029,R,ugm-3,12.57995,R,ugm-3
07-01-2017,24:00,0.73061,R,ugm-3,6.67128,R,ugm-3,7.79153,R,ugm-3
08-01-2017,01:00,0.67230,R,ugm-3,4.32416,R,ugm-3,5.35500,R,ugm-3
08-01-2017,02:00,0.77894,R,ugm-3,0.81377,R,ugm-3,2.00813,R,ugm-3
08-01-2017,03:00,0.55006,R,ugm-3,0.16065,R,ugm-3,1.00406,R,ugm-3
08-01-2017,04:00,0.59590,R,ugm-3,-0.05307,R,ugm-3,0.86063,R,ugm-3
08-01-2017,05:00,0.55006,R,ugm-3,0.16065,R,ugm-3,1.00406,R,ugm-3
08-01-2017,06:00,0.55006,R,ugm-3,1.23643,R,ugm-3,2.07984,R,ugm-3
08-01-2017,07:00,0.77894,R,ugm-3,4.18455,R,ugm-3,5.37891,R,ugm-3
08-01-2017,08:00,1.19055,R,ugm-3,10.43843,R,ugm-3,12.26391,R,ugm-3
08-01-2017,09:00,1.37390,R,ugm-3,8.93807,R,ugm-3,11.04469,R,ugm-3
08-01-2017,10:00,1.19055,R,ugm-3,9.57780,R,ugm-3,11.40328,R,ugm-3
08-01-2017,11:00,1.60309,R,ugm-3,9.66243,R,ugm-3,12.12047,R,ugm-3
08-01-2017,12:00,2.42818,R,ugm-3,12.70043,R,ugm-3,16.42359,R,ugm-3
08-01-2017,13:00,1.69477,R,ugm-3,9.80873,R,ugm-3,12.40734,R,ugm-3
08-01-2017,14:00,1.78645,R,ugm-3,9.52473,R,ugm-3,12.26391,R,ugm-3
08-01-2017,15:00,1.60309,R,ugm-3,9.94930,R,ugm-3,12.40734,R,ugm-3
08-01-2017,16:00,1.09887,R,ugm-3,8.35571,R,ugm-3,10.04063,R,ugm-3
08-01-2017,17:00,1.28254,R,ugm-3,11.94691,R,ugm-3,13.91344,R,ugm-3
08-01-2017,18:00,1.32806,R,ugm-3,24.57132,R,ugm-3,26.60766,R,ugm-3
08-01-2017,19:00,1.41974,R,ugm-3,16.18310,R,ugm-3,18.36000,R,ugm-3
08-01-2017,20:00,6.87106,R,ugm-3,28.62295,R,ugm-3,39.15844,R,ugm-3
08-01-2017,21:00,21.34660,R,ugm-3,28.44509,R,ugm-3,61.17609,R,ugm-3
08-01-2017,22:00,5.95492,R,ugm-3,19.48503,R,ugm-3,28.61578,R,ugm-3
08-01-2017,23:00,7.78689,R,ugm-3,18.89933,R,ugm-3,30.83906,R,ugm-3
08-01-2017,24:00,4.99325,R,ugm-3,16.79988,R,ugm-3,24.45609,R,ugm-3
09-01-2017,01:00,0.61242,R,ugm-3,2.32305,R,ugm-3,3.26209,R,ugm-3
09-01-2017,02:00,1.05646,R,ugm-3,2.76978,R,ugm-3,4.38967,R,ugm-3
09-01-2017,03:00,0.78050,R,ugm-3,3.62371,R,ugm-3,4.82046,R,ugm-3
09-01-2017,04:00,0.64298,R,ugm-3,1.46067,R,ugm-3,2.44657,R,ugm-3
09-01-2017,05:00,0.50547,R,ugm-3,0.01673,R,ugm-3,0.79178,R,ugm-3
09-01-2017,06:00,0.45963,R,ugm-3,-0.34568,R,ugm-3,0.35907,R,ugm-3
09-01-2017,07:00,0.59715,R,ugm-3,1.17141,R,ugm-3,2.08702,R,ugm-3
09-01-2017,08:00,0.96416,R,ugm-3,4.56657,R,ugm-3,6.04493,R,ugm-3
09-01-2017,09:00,1.14814,R,ugm-3,8.52927,R,ugm-3,10.28973,R,ugm-3
09-01-2017,10:00,0.96448,R,ugm-3,8.16398,R,ugm-3,9.64283,R,ugm-3
09-01-2017,11:00,1.05646,R,ugm-3,5.35978,R,ugm-3,6.97967,R,ugm-3
09-01-2017,12:00,1.01031,R,ugm-3,3.19961,R,ugm-3,4.74874,R,ugm-3
09-01-2017,13:00,0.82634,R,ugm-3,2.90652,R,ugm-3,4.17355,R,ugm-3
09-01-2017,14:00,0.68882,R,ugm-3,1.89338,R,ugm-3,2.94955,R,ugm-3
09-01-2017,15:00,,,,,,,,,
09-01-2017,16:00,,,,,,,,,
09-01-2017,17:00,,,,,,,,,
09-01-2017,18:00,,,,,,,,,
09-01-2017,19:00,,,,,,,,,
09-01-2017,20:00,,,,,,,,,
09-01-2017,21:00,,,,,,,,,
09-01-2017,22:00,,,,,,,,,
09-01-2017,23:00,,,,,,,,,
09-01-2017,24:00,,,,,,,,,
10-01-2017,01:00,,,,,,,,,
10-01-2017,02:00,,,,,,,,,
10-01-2017,03:00,,,,,,,,,
10-01-2017,04:00,,,,,,,,,
10-01-2017,05:00,,,,,,,,,
10-01-2017,06:00,,,,,,,,,
10-01-2017,07:00,,,,,,,,,
10-01-2017,08:00,,,,,,,,,
10-01-2017,09:00,,,,,,,,,
10-01-2017,10:00,,,,,,,,,
10-01-2017,11:00,,,,,,,,,
10-01-2017,12:00,,,,,,,,,
10-01-2017,13:00,,,,,,,,,
10-01-2017,14:00,1.36413,R,ugm-3,11.48711,R,ugm-3,13.57875,R,ugm-3
10-01-2017,15:00,0.84255,R,ugm-3,8.84436,R,ugm-3,10.13625,R,ugm-3
10-01-2017,16:00,0.66200,R,ugm-3,11.98994,R,ugm-3,13.00500,R,ugm-3
10-01-2017,17:00,0.60213,R,ugm-3,13.37268,R,ugm-3,14.29594,R,ugm-3
10-01-2017,18:00,0.99316,R,ugm-3,19.03655,R,ugm-3,20.55938,R,ugm-3
10-01-2017,19:00,1.47462,R,ugm-3,20.64113,R,ugm-3,22.90219,R,ugm-3
10-01-2017,20:00,0.57158,R,ugm-3,7.63422,R,ugm-3,8.51063,R,ugm-3
10-01-2017,21:00,0.63145,R,ugm-3,4.91273,R,ugm-3,5.88094,R,ugm-3
10-01-2017,22:00,0.09012,R,ugm-3,3.83026,R,ugm-3,3.96844,R,ugm-3
10-01-2017,23:00,0.30091,R,ugm-3,2.88548,R,ugm-3,3.34688,R,ugm-3
10-01-2017,24:00,0.12036,R,ugm-3,2.11044,R,ugm-3,2.29500,R,ugm-3
11-01-2017,01:00,0.19749,R,ugm-3,1.06718,R,ugm-3,1.36999,R,ugm-3
11-01-2017,02:00,0.59372,R,ugm-3,0.72484,R,ugm-3,1.63519,R,ugm-3
11-01-2017,03:00,0.29655,R,ugm-3,0.33899,R,ugm-3,0.79369,R,ugm-3
11-01-2017,04:00,0.20768,R,ugm-3,0.24193,R,ugm-3,0.56036,R,ugm-3
11-01-2017,05:00,0.20768,R,ugm-3,0.14870,R,ugm-3,0.46713,R,ugm-3
11-01-2017,06:00,0.26692,R,ugm-3,0.33756,R,ugm-3,0.74683,R,ugm-3
11-01-2017,07:00,0.59372,R,ugm-3,1.65909,R,ugm-3,2.56944,R,ugm-3
11-01-2017,08:00,1.18712,R,ugm-3,4.57948,R,ugm-3,6.39970,R,ugm-3
11-01-2017,09:00,1.03869,R,ugm-3,6.25531,R,ugm-3,7.84794,R,ugm-3
11-01-2017,10:00,0.86064,R,ugm-3,6.57470,R,ugm-3,7.89432,R,ugm-3
11-01-2017,11:00,0.77177,R,ugm-3,4.14248,R,ugm-3,5.32583,R,ugm-3
11-01-2017,12:00,1.00969,R,ugm-3,4.33755,R,ugm-3,5.88572,R,ugm-3
11-01-2017,13:00,1.00907,R,ugm-3,3.21778,R,ugm-3,4.76499,R,ugm-3
11-01-2017,14:00,0.80139,R,ugm-3,3.34879,R,ugm-3,4.57757,R,ugm-3
11-01-2017,15:00,0.83101,R,ugm-3,3.72412,R,ugm-3,4.99832,R,ugm-3
11-01-2017,16:00,0.80139,R,ugm-3,5.40473,R,ugm-3,6.63351,R,ugm-3
11-01-2017,17:00,0.80139,R,ugm-3,8.30025,R,ugm-3,9.52903,R,ugm-3
11-01-2017,18:00,1.48398,R,ugm-3,16.50296,R,ugm-3,18.77836,R,ugm-3
11-01-2017,19:00,1.00938,R,ugm-3,16.34327,R,ugm-3,17.89096,R,ugm-3
11-01-2017,20:00,0.94982,R,ugm-3,13.81877,R,ugm-3,15.27514,R,ugm-3
11-01-2017,21:00,0.80139,R,ugm-3,10.54313,R,ugm-3,11.77192,R,ugm-3
11-01-2017,22:00,0.77177,R,ugm-3,7.22543,R,ugm-3,8.40878,R,ugm-3
11-01-2017,23:00,0.44560,R,ugm-3,3.98804,R,ugm-3,4.67128,R,ugm-3
11-01-2017,24:00,0.23730,R,ugm-3,4.30791,R,ugm-3,4.67176,R,ugm-3
12-01-2017,01:00,0.19541,R,ugm-3,1.82899,R,ugm-3,2.12861,R,ugm-3
12-01-2017,02:00,0.62531,R,ugm-3,0.80516,R,ugm-3,1.76396,R,ugm-3
12-01-2017,03:00,0.49830,R,ugm-3,0.87784,R,ugm-3,1.64188,R,ugm-3
12-01-2017,04:00,0.38105,R,ugm-3,1.01219,R,ugm-3,1.59646,R,ugm-3
12-01-2017,05:00,0.29312,R,ugm-3,0.78269,R,ugm-3,1.23213,R,ugm-3
12-01-2017,06:00,0.41036,R,ugm-3,2.70045,R,ugm-3,3.32966,R,ugm-3
12-01-2017,07:00,1.02590,R,ugm-3,6.77408,R,ugm-3,8.34711,R,ugm-3
12-01-2017,08:00,1.28971,R,ugm-3,9.51708,R,ugm-3,11.49460,R,ugm-3
12-01-2017,09:00,1.11384,R,ugm-3,11.51994,R,ugm-3,13.22781,R,ugm-3
12-01-2017,10:00,0.99659,R,ugm-3,8.27873,R,ugm-3,9.80682,R,ugm-3
12-01-2017,11:00,1.08453,R,ugm-3,9.01027,R,ugm-3,10.67318,R,ugm-3
12-01-2017,12:00,1.05522,R,ugm-3,9.55724,R,ugm-3,11.17522,R,ugm-3
12-01-2017,13:00,2.05181,R,ugm-3,26.41115,R,ugm-3,29.55721,R,ugm-3
12-01-2017,14:00,2.84322,R,ugm-3,29.43911,R,ugm-3,33.79866,R,ugm-3
12-01-2017,15:00,1.75869,R,ugm-3,11.80825,R,ugm-3,14.50488,R,ugm-3
12-01-2017,16:00,0.99659,R,ugm-3,7.32057,R,ugm-3,8.84866,R,ugm-3
12-01-2017,17:00,1.02590,R,ugm-3,4.85823,R,ugm-3,6.43126,R,ugm-3
12-01-2017,18:00,1.43627,R,ugm-3,9.74801,R,ugm-3,11.95026,R,ugm-3
12-01-2017,19:00,1.43627,R,ugm-3,8.01529,R,ugm-3,10.21753,R,ugm-3
12-01-2017,20:00,1.17246,R,ugm-3,6.96007,R,ugm-3,8.75782,R,ugm-3
12-01-2017,21:00,0.85004,R,ugm-3,6.67893,R,ugm-3,7.98230,R,ugm-3
12-01-2017,22:00,0.99659,R,ugm-3,6.36337,R,ugm-3,7.89145,R,ugm-3
12-01-2017,23:00,0.64485,R,ugm-3,5.67104,R,ugm-3,6.65980,R,ugm-3
12-01-2017,24:00,0.41036,R,ugm-3,3.24743,R,ugm-3,3.87664,R,ugm-3
13-01-2017,01:00,0.23117,R,ugm-3,2.31667,R,ugm-3,2.67113,R,ugm-3
13-01-2017,02:00,0.42408,R,ugm-3,3.02940,R,ugm-3,3.67965,R,ugm-3
13-01-2017,03:00,0.26006,R,ugm-3,0.80325,R,ugm-3,1.20201,R,ugm-3
13-01-2017,04:00,0.23106,R,ugm-3,0.49151,R,ugm-3,0.84580,R,ugm-3
13-01-2017,05:00,0.26006,R,ugm-3,1.11499,R,ugm-3,1.51374,R,ugm-3
13-01-2017,06:00,0.23106,R,ugm-3,2.85106,R,ugm-3,3.20535,R,ugm-3
13-01-2017,07:00,0.66512,R,ugm-3,4.36624,R,ugm-3,5.38608,R,ugm-3
13-01-2017,08:00,1.01187,R,ugm-3,8.41978,R,ugm-3,9.97130,R,ugm-3
13-01-2017,09:00,1.64768,R,ugm-3,9.89241,R,ugm-3,12.41882,R,ugm-3
13-01-2017,10:00,1.24262,R,ugm-3,5.35022,R,ugm-3,7.25555,R,ugm-3
13-01-2017,11:00,1.18494,R,ugm-3,3.70260,R,ugm-3,5.51948,R,ugm-3
13-01-2017,12:00,1.27162,R,ugm-3,3.79249,R,ugm-3,5.74228,R,ugm-3
13-01-2017,13:00,1.32962,R,ugm-3,3.70356,R,ugm-3,5.74228,R,ugm-3
13-01-2017,14:00,1.12756,R,ugm-3,3.61319,R,ugm-3,5.34209,R,ugm-3
13-01-2017,15:00,0.95419,R,ugm-3,4.10088,R,ugm-3,5.56394,R,ugm-3
13-01-2017,16:00,1.04087,R,ugm-3,6.41644,R,ugm-3,8.01242,R,ugm-3
13-01-2017,17:00,1.12725,R,ugm-3,7.66387,R,ugm-3,9.39229,R,ugm-3
13-01-2017,18:00,1.38762,R,ugm-3,9.98038,R,ugm-3,12.10804,R,ugm-3
13-01-2017,19:00,1.30093,R,ugm-3,8.55461,R,ugm-3,10.54935,R,ugm-3
13-01-2017,20:00,1.30093,R,ugm-3,9.62322,R,ugm-3,11.61796,R,ugm-3
13-01-2017,21:00,1.27193,R,ugm-3,12.24956,R,ugm-3,14.19983,R,ugm-3
13-01-2017,22:00,1.61837,R,ugm-3,18.21704,R,ugm-3,20.69851,R,ugm-3
13-01-2017,23:00,2.08143,R,ugm-3,24.71858,R,ugm-3,27.91007,R,ugm-3
13-01-2017,24:00,0.57812,R,ugm-3,10.59812,R,ugm-3,11.48456,R,ugm-3
14-01-2017,01:00,0.30393,R,ugm-3,7.69590,R,ugm-3,8.16191,R,ugm-3
14-01-2017,02:00,0.68477,R,ugm-3,3.59550,R,ugm-3,4.64546,R,ugm-3
14-01-2017,03:00,0.25694,R,ugm-3,6.42170,R,ugm-3,6.81567,R,ugm-3
14-01-2017,04:00,0.65608,R,ugm-3,8.24144,R,ugm-3,9.24742,R,ugm-3
14-01-2017,05:00,0.17119,R,ugm-3,5.64188,R,ugm-3,5.90437,R,ugm-3
14-01-2017,06:00,0.34238,R,ugm-3,7.28949,R,ugm-3,7.81448,R,ugm-3
14-01-2017,07:00,1.25510,R,ugm-3,14.44272,R,ugm-3,16.36718,R,ugm-3
14-01-2017,08:00,6.56205,R,ugm-3,34.00329,R,ugm-3,44.06496,R,ugm-3
14-01-2017,09:00,4.45130,R,ugm-3,32.59426,R,ugm-3,39.41949,R,ugm-3
14-01-2017,10:00,6.10585,R,ugm-3,26.75827,R,ugm-3,36.12043,R,ugm-3
14-01-2017,11:00,6.53367,R,ugm-3,21.71739,R,ugm-3,31.73555,R,ugm-3
14-01-2017,12:00,2.11137,R,ugm-3,5.44489,R,ugm-3,8.68227,R,ugm-3
14-01-2017,13:00,1.94018,R,ugm-3,5.14319,R,ugm-3,8.11808,R,ugm-3
14-01-2017,14:00,1.36922,R,ugm-3,4.02199,R,ugm-3,6.12143,R,ugm-3
14-01-2017,15:00,0.77083,R,ugm-3,3.98422,R,ugm-3,5.16614,R,ugm-3
14-01-2017,16:00,1.19803,R,ugm-3,6.15108,R,ugm-3,7.98803,R,ugm-3
14-01-2017,17:00,1.25510,R,ugm-3,9.31961,R,ugm-3,11.24407,R,ugm-3
14-01-2017,18:00,1.71192,R,ugm-3,11.13744,R,ugm-3,13.76235,R,ugm-3
14-01-2017,19:00,1.11259,R,ugm-3,10.53644,R,ugm-3,12.24239,R,ugm-3
14-01-2017,20:00,1.14128,R,ugm-3,9.79774,R,ugm-3,11.54768,R,ugm-3
14-01-2017,21:00,1.54073,R,ugm-3,16.17545,R,ugm-3,18.53786,R,ugm-3
14-01-2017,22:00,0.79858,R,ugm-3,7.02366,R,ugm-3,8.24813,R,ugm-3
14-01-2017,23:00,0.79952,R,ugm-3,7.06621,R,ugm-3,8.29212,R,ugm-3
14-01-2017,24:00,0.42814,R,ugm-3,4.55318,R,ugm-3,5.20965,R,ugm-3
15-01-2017,01:00,0.07484,R,ugm-3,2.31158,R,ugm-3,2.42633,R,ugm-3
15-01-2017,02:00,0.76023,R,ugm-3,2.05020,R,ugm-3,3.21587,R,ugm-3
15-01-2017,03:00,0.53540,R,ugm-3,2.26870,R,ugm-3,3.08964,R,ugm-3
15-01-2017,04:00,0.33802,R,ugm-3,1.72412,R,ugm-3,2.24241,R,ugm-3
15-01-2017,05:00,0.39446,R,ugm-3,2.44178,R,ugm-3,3.04661,R,ugm-3
15-01-2017,06:00,0.39446,R,ugm-3,4.30313,R,ugm-3,4.90795,R,ugm-3
15-01-2017,07:00,0.59184,R,ugm-3,5.48218,R,ugm-3,6.38966,R,ugm-3
15-01-2017,08:00,0.78829,R,ugm-3,7.16996,R,ugm-3,8.37866,R,ugm-3
15-01-2017,09:00,1.42691,R,ugm-3,8.19315,R,ugm-3,10.38105,R,ugm-3
15-01-2017,10:00,,,,,,,,,
15-01-2017,11:00,1.26726,R,ugm-3,8.00047,R,ugm-3,9.94357,R,ugm-3
15-01-2017,12:00,1.32339,R,ugm-3,6.60338,R,ugm-3,8.63255,R,ugm-3
15-01-2017,13:00,0.90117,R,ugm-3,5.47358,R,ugm-3,6.85536,R,ugm-3
15-01-2017,14:00,0.95730,R,ugm-3,4.71049,R,ugm-3,6.17833,R,ugm-3
15-01-2017,15:00,0.84473,R,ugm-3,4.33229,R,ugm-3,5.62753,R,ugm-3
15-01-2017,16:00,0.98568,R,ugm-3,5.34305,R,ugm-3,6.85440,R,ugm-3
15-01-2017,17:00,0.90117,R,ugm-3,5.64235,R,ugm-3,7.02413,R,ugm-3
15-01-2017,18:00,0.81667,R,ugm-3,5.89911,R,ugm-3,7.15132,R,ugm-3
15-01-2017,19:00,0.81667,R,ugm-3,5.98421,R,ugm-3,7.23642,R,ugm-3
15-01-2017,20:00,0.73217,R,ugm-3,4.75926,R,ugm-3,5.88189,R,ugm-3
15-01-2017,21:00,0.56316,R,ugm-3,4.59478,R,ugm-3,5.45828,R,ugm-3
15-01-2017,22:00,0.53509,R,ugm-3,3.87664,R,ugm-3,4.69710,R,ugm-3
15-01-2017,23:00,0.47896,R,ugm-3,2.60865,R,ugm-3,3.34305,R,ugm-3
15-01-2017,24:00,0.25320,R,ugm-3,2.02390,R,ugm-3,2.41214,R,ugm-3
16-01-2017,01:00,0.45319,R,ugm-3,2.48625,R,ugm-3,3.18112,R,ugm-3
16-01-2017,02:00,0.59434,R,ugm-3,1.94262,R,ugm-3,2.85393,R,ugm-3
16-01-2017,03:00,0.53790,R,ugm-3,1.77384,R,ugm-3,2.59861,R,ugm-3
16-01-2017,04:00,0.22670,R,ugm-3,1.39899,R,ugm-3,1.74659,R,ugm-3
16-01-2017,05:00,0.22701,R,ugm-3,1.86660,R,ugm-3,2.21468,R,ugm-3
16-01-2017,06:00,0.31151,R,ugm-3,2.50490,R,ugm-3,2.98254,R,ugm-3
16-01-2017,07:00,0.76428,R,ugm-3,4.45134,R,ugm-3,5.62323,R,ugm-3
16-01-2017,08:00,1.58563,R,ugm-3,11.37077,R,ugm-3,13.80203,R,ugm-3
16-01-2017,09:00,1.78364,R,ugm-3,14.04970,R,ugm-3,16.78458,R,ugm-3
16-01-2017,10:00,1.64207,R,ugm-3,11.79582,R,ugm-3,14.31363,R,ugm-3
16-01-2017,11:00,1.52888,R,ugm-3,8.81710,R,ugm-3,11.16135,R,ugm-3
16-01-2017,12:00,1.44406,R,ugm-3,7.03035,R,ugm-3,9.24455,R,ugm-3
16-01-2017,13:00,1.33087,R,ugm-3,7.03322,R,ugm-3,9.07386,R,ugm-3
16-01-2017,14:00,1.27443,R,ugm-3,5.92732,R,ugm-3,7.88141,R,ugm-3
16-01-2017,15:00,1.16092,R,ugm-3,7.33683,R,ugm-3,9.11689,R,ugm-3
16-01-2017,16:00,1.44406,R,ugm-3,8.86205,R,ugm-3,11.07624,R,ugm-3